User: anonymous   Login
Location: Newark
(48.3453°N, 0.5589°E)
Time: 16:36:27
(UTC+00:00)
Language:

Explorer 7 - Orbit

View from above orbital plane
View from above orbital plane
View from above satellite
View from above satellite

Ground track
Ground track

The orbit data is extracted from the following two-line orbital elements,

1    22U 59009A   19342.87341455 -.00000086  00000-0  16683-4 0  9996
2    22  50.2853 280.8654 0139914 246.8904 111.7245 14.95003615196665
Epoch (UTC): 08 December 2019 20:57:43
Eccentricity: 0.0139914
inclination: 50.2853°
perigee height: 485 km
apogee height: 680 km
right ascension of ascending node: 280.8654°
argument of perigee: 246.8904°
revolutions per day: 14.95003615
mean anomaly at epoch: 111.7245°
orbit number at epoch: 19666

The dashed part of the orbit path shows where the satellite is in the earth's shadow,  

DLR